Weather in Sug-Aksy

Russia / Tyva Republic     51°24′04″N   91°16′34″E
temp.,
°C
wind,
m/s
gust,
m/s
humid.,
%
clouds,
%
prec.,
mm/h
press.,
hPa
HPBL,
m
13 june, sun
sun1301:00+5nw228158 0.0 101326
04:00+5nw227967 0.0 101420
07:00+7ssw117498 0.0 1014138
10:00+9ese1167100 0.1 1013629
13:00+10n236690 0.3 1013888
16:00+13ne124982 0.2 10111589
19:00+14nnw224967 0.6 10111201
22:00+9nw447255 0.3 101474
14 june, mon
mon1401:00+7nw3379100 0.4 101661
04:00+6nw2279100 0.0 101634
07:00+9wnw126793 0.0 1016253
10:00+12wnw145078 0.0 10141521
13:00+15n244657 0.1 10141629
16:00+16nnw444356 0.1 10131854
19:00+13n45524 0.1 1015888
22:00+7nnw337792 0.0 101857
15 june, tue
tue1501:00+6nnw327831 0.0 101936
04:00+6nnw22805 0.0 101915
07:00+8ene11675 0.0 1018295
10:00+12se335451 0.0 10171263
13:00+15se334556 0.1 10151641
16:00+17sse333991 0.1 10141965
19:00+16s214323 0.1 10141043
22:00+11nw33565 0.0 101630
16 june, wed
wed1601:00+9nw33650 0.0 101734
04:00+7nw326971 0.0 101726
07:00+11n115463 0.0 1017197
10:00+15se22435 0.0 10161035
13:00+19se33350 0.0 10141366
16:00+21se32320 0.0 10121422
19:00+20e11300 0.0 1011789
22:00+15nnw33450 0.0 101318
17 june, thu
thu1701:00+12nw32550 0.0 101424
04:00+11nw22550 0.0 101419
07:00+15n11470 0.0 1014146
10:00+18sse22400 0.0 1012772
13:00+22sse33337 0.0 10091546
16:00+24ese232918 0.0 10072427
19:00+24sw1229100 0.0 10061518
22:00+16nw22504 0.1 100924